[[{"header":{"parameterUnit":"m.s-1","parameterCategory":1,"la1":30.2991,"la2":30.254,"lo1":-89.0895,"lo2":-89.0444,"dy":0.0017,"dx":0.0017,"nx":28,"ny":28,"refTime":"2025-08-06T21:00:00:Z","depth":0,"parameterNumber":2,"parameterNumberName":"U-component_of_WINDS"},"data":[0,0,0,0,0,0,0,0,0,0,0,0,0,0,0,0,0,0,0,0,0,0,0,0,0,0,0,0,0,0,0,0,0,0,0,0,0,0,0,0,0,0,0,0,0,0,0,0,0,0,0,0,0,0,0,0,0,0,-0.2156,-0.2155,0,-0.2112,-0.2111,-0.211,-0.2097,-0.2097,-0.2098,-0.2098,-0.2048,-0.2046,-0.2045,0,0,0,0,0,0,0,0,0,0,0,0,0,-0.2226,-0.2224,-0.2156,-0.2155,-0.2155,-0.2112,-0.2111,-0.211,-0.2097,-0.2097,-0.2098,-0.2098,-0.2048,-0.2046,-0.2044,0,0,0,0,0,0,0,0,0,0,0,0,0,-0.219,-0.2224,-0.2156,-0.2143,-0.2142,-0.2112,-0.2111,-0.211,-0.2097,-0.2097,-0.2098,-0.2098,-0.2049,-0.2047,-0.2044,-0.2023,0,0,-0.2037,-0.2036,0,0,0,0,0,0,0,0,-0.2192,-0.2187,-0.2146,-0.2144,-0.2142,-0.211,-0.2117,-0.2081,-0.2097,-0.2114,-0.2098,-0.2098,-0.2068,-0.2064,-0.2055,-0.202,-0.2018,-0.2037,-0.2035,-0.2034,-0.2034,0,0,0,0,0,0,0,-0.2194,-0.2189,-0.2138,-0.2145,-0.2143,-0.2138,-0.2134,-0.211,-0.2089,-0.2112,-0.2111,-0.2106,-0.2067,-0.2057,-0.2053,-0.2017,-0.2037,-0.2035,-0.2033,-0.2033,-0.1963,-0.1963,0,0,0,0,0,0,-0.2199,-0.2191,-0.214,-0.2137,-0.2168,-0.2137,-0.2131,-0.212,-0.2089,-0.2085,-0.2106,-0.2106,-0.2061,-0.2056,-0.2052,-0.2024,-0.2034,-0.2032,-0.2031,-0.1963,-0.1963,-0.1962,0,0,0,0,0,0,-0.2201,-0.2195,-0.2141,-0.2164,-0.2157,-0.2135,-0.2122,-0.2119,-0.2109,-0.2085,-0.2081,-0.21,-0.2061,-0.2055,-0.203,-0.2022,-0.2031,-0.2029,-0.1964,-0.1963,-0.1963,-0.1969,0,0,0,0,0,0,-0.2203,-0.2196,-0.2188,-0.2164,-0.2155,-0.2122,-0.2122,-0.2118,-0.2106,-0.2105,-0.2078,-0.2074,-0.2061,-0.2034,-0.2028,-0.2019,-0.2027,-0.1965,-0.1964,-0.1963,-0.197,-0.1969,-0.1968,0,0,0,0,0,-0.2206,-0.2191,-0.2188,-0.2181,-0.2146,-0.2122,-0.2117,-0.2103,-0.2105,-0.2097,-0.2081,-0.2075,-0.2025,-0.2031,-0.2025,-0.2015,-0.1965,-0.1964,-0.1963,-0.197,-0.1969,-0.1968,0,0,0,0,0,0,-0.2213,-0.2187,-0.2184,-0.2161,-0.2144,-0.2119,-0.2108,-0.2103,-0.2083,-0.2083,-0.2066,-0.206,-0.2037,-0.2023,-0.2032,-0.1993,-0.1994,-0.1992,-0.2002,-0.2001,-0.2,-0.2003,-0.2025,0,0,0,0,0,-0.2212,-0.2196,-0.2174,-0.2156,-0.2147,-0.213,-0.2118,-0.211,-0.2091,-0.2083,-0.2066,-0.2046,-0.2026,-0.2013,-0.1993,-0.1968,-0.1962,-0.1958,-0.1958,-0.1957,-0.1955,-0.194,-0.1938,-0.1959,-0.1959,-0.1959,0,0,-0.2209,-0.2193,-0.2184,-0.2157,-0.2142,-0.2125,-0.2123,-0.2105,-0.2091,-0.208,-0.2056,-0.2042,-0.2019,-0.1995,-0.1983,-0.1983,-0.1948,-0.1956,-0.1956,-0.1953,-0.1939,-0.1937,-0.1935,-0.1958,-0.1959,-0.1959,0,0,-0.2196,-0.2183,-0.2166,-0.2152,-0.2132,-0.212,-0.2116,-0.2093,-0.2084,-0.206,-0.2051,-0.2034,-0.2,-0.1984,-0.1972,-0.1954,-0.1947,-0.1948,-0.1943,-0.193,-0.1928,-0.1926,-0.1919,-0.1917,-0.1946,-0.1946,-0.1946,0,-0.2195,-0.2169,-0.2158,-0.214,-0.2128,-0.2119,-0.2101,-0.2088,-0.2061,-0.2052,-0.2054,-0.2011,-0.1995,-0.1966,-0.1962,-0.1952,-0.1946,-0.195,-0.1929,-0.1928,-0.1926,-0.1919,-0.1916,-0.1946,-0.1946,-0.1946,-0.1946,0,-0.2169,-0.2151,-0.214,-0.2117,-0.2103,-0.2086,-0.207,-0.2058,-0.2051,-0.2039,-0.2015,-0.1995,-0.1972,-0.1964,-0.1956,-0.1934,-0.1935,-0.1933,-0.1934,-0.1924,-0.1917,-0.1915,-0.1946,-0.1946,-0.1946,-0.1946,0,0,-0.2156,-0.2128,-0.2124,-0.2113,-0.209,-0.2076,-0.2058,-0.2036,-0.2026,-0.2008,-0.1991,-0.1963,-0.1962,-0.1947,-0.1938,-0.1926,-0.1912,-0.1925,-0.1924,-0.1923,-0.1886,-0.1887,-0.1884,-0.1908,-0.1907,-0.1907,-0.1887,0,-0.2139,-0.2108,-0.2098,-0.2071,-0.2054,-0.2046,-0.203,-0.2014,-0.2003,-0.1986,-0.1972,-0.1953,-0.1952,-0.1944,-0.1932,-0.1916,-0.1904,-0.1918,-0.1891,-0.189,-0.1896,-0.188,-0.1881,-0.1863,-0.1885,-0.1884,-0.1884,0,-0.2115,-0.2098,-0.2071,-0.205,-0.2043,-0.2029,-0.2009,-0.1993,-0.1974,-0.1967,-0.1952,-0.1943,-0.1923,-0.1927,-0.1898,-0.1907,-0.1896,-0.1886,-0.1885,-0.1881,-0.1885,-0.1874,-0.1857,-0.1854,-0.1879,-0.188,-0.188,0,-0.2108,-0.2079,-0.2058,-0.2049,-0.2026,-0.2016,-0.2005,-0.1987,-0.1975,-0.1956,-0.1948,-0.1927,-0.1915,-0.1899,-0.1885,-0.1889,-0.1857,-0.1859,-0.1849,-0.1849,-0.1841,-0.1841,-0.182,-0.1836,-0.1836,-0.1836,-0.1836,0,-0.2088,-0.2072,-0.2055,-0.2042,-0.2023,-0.2011,-0.1992,-0.1981,-0.1965,-0.1949,-0.194,-0.1925,-0.1908,-0.189,-0.1879,-0.1856,-0.1851,-0.1843,-0.184,-0.1843,-0.1844,-0.1834,-0.1835,-0.1835,-0.1835,-0.1835,-0.1835,0,-0.2076,-0.2065,-0.2042,-0.2022,-0.2017,-0.2003,-0.1986,-0.1972,-0.1962,-0.1942,-0.1936,-0.1918,-0.1897,-0.1882,-0.1854,-0.1847,-0.1822,-0.1819,-0.1829,-0.1827,-0.1817,-0.1818,-0.1788,-0.1783,-0.1803,-0.1803,-0.1802,0,-0.2064,-0.2052,-0.2031,-0.2021,-0.2011,-0.1994,-0.1982,-0.197,-0.1958,-0.1936,-0.1925,-0.1904,-0.1886,-0.1853,-0.1836,-0.1815,-0.1811,-0.1802,-0.1808,-0.1811,-0.181,-0.181,-0.1808,-0.1801,-0.1801,-0.1801,-0.1801,0,-0.2044,-0.2039,-0.2023,-0.2006,-0.1992,-0.1977,-0.1962,-0.1954,-0.1939,-0.1925,-0.1905,-0.1891,-0.1864,-0.1843,-0.182,-0.1808,-0.1801,-0.18,-0.1796,-0.1798,-0.1803,-0.1799,-0.1825,-0.18,-0.18,-0.18,-0.18,-0.18,-0.2031,-0.2019,-0.2003,-0.1986,-0.1973,-0.196,-0.1947,-0.1935,-0.1918,-0.1896,-0.189,-0.1868,-0.185,-0.1819,-0.1807,-0.1789,-0.1789,-0.1783,-0.1782,-0.178,-0.178,-0.1808,-0.1784,-0.1784,-0.1784,-0.1784,-0.1784,0,-0.2009,-0.1999,-0.1983,-0.1963,-0.1949,-0.1947,-0.193,-0.1918,-0.19,-0.1884,-0.1868,-0.1844,-0.1824,-0.1806,-0.1785,-0.1774,-0.177,-0.1768,-0.1768,-0.1765,-0.1781,-0.1787,-0.1772,-0.1772,-0.1772,-0.1772,-0.1772,-0.1772,-0.1996,-0.1976,-0.1969,-0.1943,-0.1933,-0.1913,-0.1903,-0.189,-0.1878,-0.1852,-0.1836,-0.1826,-0.1809,-0.1787,-0.1767,-0.1763,-0.1754,-0.1753,-0.1748,-0.1763,-0.1764,-0.1765,-0.177,-0.1752,-0.1752,-0.1733,-0.1732,-0.1732]},{"header":{"parameterUnit":"m.s-1","parameterCategory":1,"la1":30.2991,"la2":30.254,"lo1":-89.0895,"lo2":-89.0444,"dy":0.0017,"dx":0.0017,"nx":28,"ny":28,"refTime":"2025-08-06T21:00:00:Z","depth":0,"parameterNumber":3,"parameterNumberName":"V-component_of_WINDS"},"data":[0,0,0,0,0,0,0,0,0,0,0,0,0,0,0,0,0,0,0,0,0,0,0,0,0,0,0,0,0,0,0,0,0,0,0,0,0,0,0,0,0,0,0,0,0,0,0,0,0,0,0,0,0,0,0,0,0,0,-0.3811,-0.3812,0,-0.3893,-0.3894,-0.3895,-0.3932,-0.3932,-0.3932,-0.3932,-0.4017,-0.4019,-0.4021,0,0,0,0,0,0,0,0,0,0,0,0,0,-0.3688,-0.369,-0.3811,-0.3812,-0.3813,-0.3893,-0.3894,-0.3895,-0.3932,-0.3932,-0.3932,-0.3932,-0.4016,-0.4019,-0.4022,0,0,0,0,0,0,0,0,0,0,0,0,0,-0.3753,-0.3691,-0.3811,-0.3841,-0.3845,-0.3893,-0.3894,-0.3895,-0.3932,-0.3932,-0.3932,-0.3932,-0.4015,-0.4018,-0.4022,-0.4046,0,0,-0.4033,-0.4034,0,0,0,0,0,0,0,0,-0.3749,-0.3758,-0.3836,-0.3839,-0.3843,-0.3902,-0.3882,-0.3946,-0.3932,-0.3899,-0.3932,-0.3932,-0.3979,-0.3985,-0.4001,-0.405,-0.4053,-0.4033,-0.4035,-0.4037,-0.4037,0,0,0,0,0,0,0,-0.3745,-0.3754,-0.3844,-0.3837,-0.3842,-0.3851,-0.386,-0.3894,-0.3939,-0.3902,-0.3905,-0.3914,-0.3981,-0.3997,-0.4003,-0.4055,-0.4033,-0.4036,-0.4038,-0.4039,-0.4128,-0.4128,0,0,0,0,0,0,-0.3735,-0.375,-0.3841,-0.3846,-0.3795,-0.3854,-0.3864,-0.3884,-0.3938,-0.3947,-0.3914,-0.3916,-0.3992,-0.3999,-0.4006,-0.4038,-0.4036,-0.404,-0.4042,-0.4127,-0.4128,-0.4128,0,0,0,0,0,0,-0.3732,-0.3743,-0.3838,-0.3799,-0.3812,-0.3856,-0.3878,-0.3885,-0.3902,-0.3948,-0.3956,-0.3923,-0.3992,-0.4001,-0.4036,-0.4042,-0.4041,-0.4044,-0.4127,-0.4128,-0.4128,-0.4102,0,0,0,0,0,0,-0.3729,-0.3742,-0.3751,-0.3799,-0.3814,-0.3865,-0.3878,-0.3887,-0.3908,-0.391,-0.3958,-0.3966,-0.3992,-0.403,-0.4039,-0.4047,-0.4047,-0.4127,-0.4127,-0.4128,-0.4103,-0.4102,-0.4101,0,0,0,0,0,-0.3724,-0.3741,-0.3751,-0.3762,-0.3826,-0.3866,-0.3874,-0.3904,-0.3908,-0.3918,-0.3947,-0.3964,-0.404,-0.4034,-0.4044,-0.4052,-0.4127,-0.4127,-0.4128,-0.4103,-0.4102,-0.4101,0,0,0,0,0,0,-0.3692,-0.3747,-0.376,-0.3792,-0.3824,-0.3872,-0.3885,-0.3902,-0.3934,-0.3935,-0.3971,-0.3982,-0.4013,-0.4036,-0.4028,-0.4079,-0.4085,-0.4087,-0.4062,-0.4062,-0.4061,-0.4055,-0.405,0,0,0,0,0,-0.3689,-0.3716,-0.3763,-0.3787,-0.3802,-0.3841,-0.3859,-0.388,-0.3914,-0.3928,-0.396,-0.3993,-0.4024,-0.4044,-0.4075,-0.4106,-0.4117,-0.4117,-0.4116,-0.4115,-0.4117,-0.4136,-0.4136,-0.413,-0.413,-0.413,0,0,-0.3683,-0.3716,-0.3731,-0.3781,-0.3809,-0.3836,-0.3852,-0.3881,-0.3902,-0.3933,-0.3967,-0.3991,-0.4031,-0.4064,-0.408,-0.4084,-0.4121,-0.4116,-0.4115,-0.4117,-0.4136,-0.4137,-0.4137,-0.413,-0.413,-0.413,0,0,-0.3685,-0.3713,-0.3736,-0.3763,-0.3804,-0.3829,-0.3835,-0.3881,-0.3898,-0.3933,-0.3957,-0.3982,-0.4035,-0.4063,-0.4083,-0.4096,-0.4113,-0.4105,-0.41,-0.4118,-0.4118,-0.4119,-0.4124,-0.4126,-0.4107,-0.4107,-0.4107,0,-0.3672,-0.3715,-0.3746,-0.3774,-0.3795,-0.3824,-0.3848,-0.3873,-0.3922,-0.3936,-0.394,-0.4007,-0.4036,-0.4075,-0.4079,-0.4094,-0.4102,-0.41,-0.4116,-0.4117,-0.4118,-0.4123,-0.4125,-0.4106,-0.4106,-0.4106,-0.4106,0,-0.3697,-0.3726,-0.374,-0.3786,-0.381,-0.3835,-0.3871,-0.3891,-0.3909,-0.3934,-0.397,-0.4005,-0.4044,-0.4055,-0.4073,-0.4097,-0.4099,-0.4109,-0.4116,-0.4117,-0.4122,-0.4125,-0.4104,-0.4105,-0.4105,-0.4105,0,0,-0.3682,-0.3746,-0.375,-0.3772,-0.3819,-0.3842,-0.3869,-0.3907,-0.3924,-0.3956,-0.398,-0.4024,-0.4034,-0.4057,-0.4079,-0.4094,-0.4103,-0.4103,-0.4104,-0.4102,-0.4132,-0.4125,-0.4127,-0.4114,-0.4115,-0.4115,-0.4129,0,-0.3692,-0.3741,-0.377,-0.3808,-0.3836,-0.3864,-0.3887,-0.3919,-0.3943,-0.397,-0.3997,-0.4028,-0.4038,-0.4053,-0.4069,-0.4098,-0.411,-0.4098,-0.4137,-0.4138,-0.4127,-0.413,-0.4122,-0.4134,-0.4131,-0.4132,-0.4132,0,-0.3709,-0.3741,-0.3782,-0.3826,-0.3839,-0.3859,-0.3897,-0.3922,-0.3959,-0.3976,-0.4002,-0.4023,-0.4053,-0.4057,-0.4099,-0.4091,-0.4109,-0.4125,-0.4127,-0.4132,-0.4136,-0.4135,-0.4138,-0.414,-0.4136,-0.4136,-0.4135,0,-0.3695,-0.3748,-0.378,-0.3797,-0.3849,-0.3863,-0.3886,-0.3922,-0.3943,-0.3976,-0.399,-0.4026,-0.4045,-0.4073,-0.4104,-0.4103,-0.4143,-0.4149,-0.4158,-0.4157,-0.4165,-0.4165,-0.4171,-0.4176,-0.4176,-0.4176,-0.4176,0,-0.3703,-0.3727,-0.3774,-0.3793,-0.3821,-0.3854,-0.3881,-0.3905,-0.3938,-0.3962,-0.3988,-0.4011,-0.405,-0.4078,-0.4102,-0.4134,-0.4142,-0.4157,-0.4163,-0.4155,-0.4153,-0.4168,-0.4168,-0.4176,-0.4176,-0.4176,-0.4176,0,-0.3692,-0.3724,-0.376,-0.3807,-0.3819,-0.3837,-0.3878,-0.3898,-0.3923,-0.3954,-0.3963,-0.4004,-0.4038,-0.4071,-0.4117,-0.4133,-0.4164,-0.4172,-0.4152,-0.4156,-0.4163,-0.4162,-0.4179,-0.4184,-0.4184,-0.4184,-0.4184,0,-0.3695,-0.3714,-0.3763,-0.3781,-0.3803,-0.3832,-0.3854,-0.3887,-0.3909,-0.3952,-0.3967,-0.4003,-0.4033,-0.4086,-0.412,-0.4155,-0.4165,-0.4168,-0.417,-0.4161,-0.4165,-0.4164,-0.4166,-0.4167,-0.4167,-0.4167,-0.4167,0,-0.3697,-0.3713,-0.3743,-0.3778,-0.3803,-0.3833,-0.3864,-0.3878,-0.3917,-0.394,-0.3975,-0.3999,-0.4046,-0.4081,-0.412,-0.4144,-0.4162,-0.4166,-0.417,-0.4162,-0.415,-0.4157,-0.415,-0.4166,-0.4166,-0.4166,-0.4166,-0.4166,-0.3694,-0.3712,-0.375,-0.3782,-0.3809,-0.3837,-0.3858,-0.3886,-0.3916,-0.3957,-0.3975,-0.401,-0.4047,-0.4101,-0.4124,-0.4152,-0.4157,-0.4163,-0.4164,-0.4165,-0.4164,-0.4145,-0.416,-0.416,-0.416,-0.416,-0.416,0,-0.3698,-0.3723,-0.3753,-0.3795,-0.3821,-0.3836,-0.3871,-0.3892,-0.3922,-0.3955,-0.3984,-0.4025,-0.4059,-0.4095,-0.4132,-0.4148,-0.4157,-0.4156,-0.4156,-0.4161,-0.4157,-0.415,-0.4148,-0.4148,-0.4148,-0.4148,-0.4148,-0.4148,-0.3703,-0.3735,-0.3755,-0.3801,-0.3826,-0.3861,-0.3879,-0.3906,-0.3932,-0.3976,-0.4004,-0.4028,-0.4062,-0.4101,-0.4134,-0.4143,-0.4156,-0.4153,-0.4165,-0.4161,-0.4161,-0.4162,-0.4156,-0.4155,-0.4155,-0.4167,-0.4167,-0.4167]}]]